Vorticity
6 6 7 9 8 10 10 10 9 7 -3 18 11 12 11 10 9 8 5 3 6 10 14 6 4 12 13 8 5 7 8 7 9 8 7 9 8 5 5 1 18 4 3 15
6 6 7 8 11 10 10 11 7 5 9 4 8 9 7 8 9 15 12 12 13 9 8 3 10 9 10 11 11 7 9 9 8 12 18 20 7 11 7 7 2 7 -5 -2
5 5 7 8 10 11 10 12 7 12 9 6 9 -0 7 9 9 9 10 8 8 8 9 9 4 7 5 4 6 7 11 9 2 -7 -14 -10 -5 -5 11 10 5 1 -13 -9
5 5 7 9 9 11 8 10 5 6 4 5 8 9 4 6 9 12 10 5 8 8 7 15 6 3 3 8 9 9 10 11 8 5 8 8 6 6 7 2 11 -15 -2 -19
6 4 5 9 9 7 9 6 6 6 6 7 5 6 7 3 6 12 1 2 5 7 6 8 6 6 8 15 5 3 6 3 -1 6 17 12 8 13 10 6 8 2 16 12
7 5 7 7 9 8 6 8 9 9 7 7 10 7 3 2 4 12 2 5 6 5 7 7 6 4 6 4 6 6 17 16 5 18 10 3 39 43 39 33 23 16 6 14
6 6 6 6 7 9 9 7 8 9 7 8 7 6 7 5 6 6 5 5 5 5 5 6 5 4 11 6 8 12 -0 1 17 3 24 16 5 12 1 -7 -9 32 10 -6
6 8 7 6 6 8 10 8 8 8 9 7 7 7 7 7 7 7 4 6 7 7 6 7 23 16 35 18 17 19 19 14 4 1 11 -23 20 39 28 25 -13 -2 27 25
6 6 7 7 7 7 10 10 10 10 6 5 5 2 4 5 5 6 9 11 8 -0 6 15 17 3 -1 20 8 1 2 19 -3 14 10 2 1 6 -11 5 33 35 6 -2
8 7 7 6 6 9 11 9 10 8 4 4 6 8 10 9 9 5 3 3 8 10 14 11 18 18 -2 13 9 15 11 18 10 14 -2 14 10 19 21 38 2 -2 2 0
10 9 8 8 9 10 12 9 7 2 4 4 5 6 8 13 13 12 9 11 16 27 26 19 16 14 7 15 -2 -2 11 9 8 24 4 17 19 0 11 -8 -3 -2 -4 7
7 9 10 12 11 10 8 7 6 7 8 -4 1 -2 -4 3 5 6 6 0 -0 -8 -5 -7 10 -6 -13 -12 4 9 16 4 -10 -13 -14 -25 -22 -10 -6 16 -5 13 4 -9
19 14 13 10 9 6 5 6 5 10 6 8 22 25 38 37 -2 15 20 11 3 14 17 15 10 3 10 1 13 28 9 10 7 7 18 16 11 -10 -8 -19 -1 16 16 9
16 19 16 13 14 11 9 9 8 12 10 4 10 6 14 24 -4 14 19 21 0 -2 10 12 9 7 12 7 3 0 -6 4 -10 -0 8 21 31 23 21 19 6 2 14 17
8 8 5 11 15 10 14 3 13 12 2 -24 -2 -35 -29 -13 4 17 25 18 10 7 13 2 5 5 12 1 23 26 8 12 29 7 7 6 9 11 -1 7 12 16 9 17
12 15 13 11 11 23 22 9 4 -0 -7 14 -2 21 14 4 -14 5 20 28 30 23 12 -3 8 27 22 13 -1 27 14 14 -1 11 11 5 12 12 11 16 15 17 18 21
20 17 12 9 10 7 7 12 2 32 25 23 29 43 53 53 24 -8 8 13 9 7 16 -5 12 4 12 32 15 -12 2 -7 -7 20 22 22 17 13 14 15 15 11 9 18
10 5 13 18 7 2 1 -18 18 -8 1 4 28 0 7 -15 1 21 14 7 4 9 9 8 9 22 21 21 20 37 35 20 9 10 13 14 22 26 33 31 25 17 13 11
16 15 13 13 13 12 11 6 13 14 15 9 -7 -9 8 22 20 26 22 17 14 18 8 14 20 9 -13 -1 1 1 11 12 26 31 20 12 7 14 18 14 9 6 3 1
17 18 14 13 16 14 8 14 7 6 6 3 -5 -2 16 24 7 8 16 26 26 2 20 37 33 11 15 24 19 30 19 13 12 6 12 14 8 -2 8 3 1 7 15 10
11 13 18 13 14 17 19 23 19 21 26 32 27 35 29 20 15 10 15 11 5 17 23 11 22 -8 44 21 23 13 13 8 1 2 8 3 1 0 3 2 3 9 10 14
16 13 18 16 14 22 12 22 18 9 15 11 10 13 13 20 26 24 21 17 17 6 14 11 13 15 24 11 18 6 -0 -2 5 -2 -1 2 4 9 6 3 8 11 7 6
12 18 18 17 14 9 5 14 6 9 9 6 9 11 11 20 19 15 12 12 13 15 14 2 -9 31 28 7 -5 1 8 -5 2 3 -1 2 6 10 9 8 12 12 10 15
10 15 15 6 11 15 16 5 6 12 2 0 4 7 8 13 19 11 10 12 8 11 6 -29 18 33 16 1 6 1 2 -8 -7 3 7 3 11 7 10 13 16 4 3 3
0 7 17 20 9 2 2 5 5 4 6 6 14 19 17 12 4 13 10 12 15 11 -3 12 6 31 22 6 3 7 -13 -18 5 3 -1 5 16 15 14 18 10 11 14 17
-7 3 3 16 20 -2 -7 4 12 7 3 8 17 17 17 22 4 14 2 -1 -18 -15 -5 -2 6 14 -11 -2 -0 -2 6 4 3 3 4 23 11 15 16 12 13 18 20 16
13 10 -1 -10 -10 9 3 6 7 14 21 20 23 11 1 15 16 20 3 -9 17 19 12 -2 9 9 9 6 4 3 1 5 11 21 17 10 17 19 13 17 19 25 23 13
Height
3141 3140 3137 3135 3133 3130 3129 3128 3126 3124 3122 3122 3119 3119 3118 3118 3118 3117 3117 3118 3118 3118 3117 3117 3116 3117 3117 3117 3118 3119 3120 3121 3120 3121 3120 3121 3122 3123 3124 3126 3127 3125 3124 3116
3138 3137 3135 3133 3132 3131 3129 3128 3127 3126 3124 3122 3121 3121 3121 3121 3121 3121 3120 3120 3120 3119 3118 3119 3118 3118 3119 3119 3119 3119 3119 3119 3119 3120 3122 3120 3120 3121 3122 3123 3122 3120 3121 3113
3136 3135 3133 3132 3130 3129 3129 3128 3127 3126 3125 3124 3123 3122 3122 3121 3121 3121 3121 3122 3121 3120 3120 3120 3120 3119 3119 3119 3119 3119 3119 3118 3119 3120 3119 3120 3120 3120 3120 3121 3121 3117 3112 3110
3131 3131 3131 3130 3128 3127 3128 3127 3126 3125 3125 3124 3123 3123 3123 3122 3122 3122 3122 3122 3122 3122 3121 3121 3120 3119 3119 3118 3117 3117 3117 3117 3116 3116 3116 3115 3114 3113 3112 3112 3112 3112 3105 3104
3127 3127 3127 3128 3127 3125 3125 3125 3125 3124 3124 3123 3122 3122 3122 3122 3121 3121 3120 3121 3121 3121 3120 3120 3119 3119 3119 3118 3117 3116 3116 3114 3113 3112 3111 3110 3106 3105 3104 3103 3102 3099 3100 3096
3122 3122 3123 3123 3123 3124 3123 3122 3122 3122 3123 3122 3122 3121 3121 3121 3120 3121 3120 3119 3119 3118 3118 3117 3117 3116 3115 3115 3114 3113 3112 3111 3110 3107 3106 3105 3102 3096 3094 3094 3096 3097 3094 3093
3115 3116 3117 3118 3119 3119 3120 3120 3120 3119 3119 3120 3120 3120 3119 3119 3119 3118 3118 3117 3117 3117 3115 3114 3113 3112 3111 3110 3109 3108 3108 3110 3109 3104 3102 3100 3092 3091 3091 3091 3092 3090 3087 3086
3107 3109 3111 3111 3112 3113 3115 3115 3116 3115 3115 3116 3116 3116 3116 3116 3116 3116 3115 3115 3114 3113 3113 3113 3110 3107 3104 3105 3105 3103 3103 3104 3106 3104 3100 3092 3091 3088 3086 3085 3085 3082 3079 3078
3102 3102 3104 3105 3105 3106 3107 3109 3110 3111 3111 3111 3111 3111 3111 3111 3110 3111 3110 3110 3110 3110 3109 3109 3108 3108 3105 3102 3097 3097 3099 3100 3103 3100 3098 3091 3087 3085 3083 3082 3079 3076 3074 3072
3094 3096 3096 3098 3099 3099 3101 3102 3103 3105 3105 3105 3105 3105 3105 3105 3105 3105 3105 3105 3105 3104 3103 3103 3104 3102 3101 3100 3097 3095 3093 3092 3093 3095 3094 3086 3085 3082 3079 3081 3079 3072 3070 3068
3085 3087 3089 3090 3091 3092 3094 3095 3096 3098 3098 3098 3098 3098 3099 3098 3099 3099 3100 3101 3099 3098 3097 3097 3096 3093 3094 3093 3092 3091 3092 3091 3088 3087 3088 3083 3077 3078 3080 3075 3069 3066 3065 3062
3076 3078 3080 3082 3083 3084 3085 3088 3089 3090 3092 3093 3091 3092 3092 3092 3093 3092 3092 3094 3093 3093 3091 3091 3089 3088 3086 3087 3087 3086 3085 3084 3084 3084 3077 3074 3072 3070 3067 3063 3062 3062 3058 3055
3066 3068 3071 3072 3074 3076 3077 3079 3080 3080 3080 3083 3082 3082 3082 3083 3084 3085 3087 3086 3086 3085 3084 3083 3081 3081 3079 3078 3074 3075 3073 3075 3071 3071 3067 3068 3067 3063 3057 3053 3052 3050 3048 3046
3056 3059 3062 3064 3065 3067 3069 3071 3072 3073 3072 3072 3074 3073 3074 3074 3076 3078 3080 3080 3079 3079 3077 3074 3072 3072 3069 3067 3069 3066 3068 3066 3064 3058 3058 3057 3055 3052 3048 3045 3043 3039 3038 3036
3048 3051 3053 3056 3058 3060 3061 3064 3066 3065 3069 3065 3066 3066 3067 3068 3069 3070 3071 3071 3070 3069 3067 3065 3064 3062 3064 3057 3055 3050 3054 3055 3053 3047 3051 3046 3043 3041 3040 3036 3031 3030 3027 3025
3039 3042 3045 3047 3051 3054 3055 3056 3058 3058 3060 3061 3057 3054 3056 3059 3060 3061 3061 3060 3058 3058 3058 3056 3053 3054 3056 3049 3041 3043 3045 3043 3041 3038 3038 3035 3032 3030 3028 3025 3022 3019 3015 3013
3031 3033 3036 3039 3041 3046 3048 3048 3050 3052 3054 3054 3051 3047 3044 3047 3051 3054 3054 3053 3051 3050 3050 3046 3046 3046 3047 3040 3035 3038 3036 3034 3033 3030 3027 3025 3022 3020 3018 3017 3012 3010 3007 3003
3025 3027 3028 3031 3033 3036 3040 3040 3043 3044 3046 3047 3046 3040 3042 3042 3042 3044 3044 3043 3043 3041 3039 3036 3036 3036 3035 3029 3030 3028 3027 3024 3022 3020 3017 3015 3012 3012 3010 3008 3005 3002 3002 2998
3017 3020 3021 3024 3027 3030 3032 3034 3035 3036 3041 3037 3033 3035 3038 3034 3034 3034 3034 3033 3031 3032 3029 3029 3029 3024 3019 3022 3021 3020 3020 3016 3013 3013 3012 3010 3007 3005 3005 3001 2998 2996 2995 2991
3010 3013 3015 3015 3019 3023 3026 3026 3027 3027 3027 3026 3026 3028 3030 3031 3029 3028 3029 3025 3026 3022 3021 3020 3016 3010 3014 3014 3013 3010 3009 3010 3009 3008 3006 3004 3000 3000 2997 2994 2991 2988 2985 2982
3005 3006 3009 3010 3012 3016 3018 3019 3020 3018 3017 3017 3017 3019 3020 3021 3022 3022 3023 3020 3020 3017 3016 3016 3008 3004 3005 3004 3004 3004 3006 3004 3004 3003 3001 2996 2993 2992 2989 2985 2982 2979 2975 2971
3000 3002 3004 3007 3009 3010 3012 3010 3013 3011 3013 3012 3011 3012 3012 3015 3016 3016 3015 3015 3015 3012 3009 3008 3002 3001 2999 2998 2998 3000 3001 3001 2999 2997 2994 2990 2987 2985 2980 2976 2971 2967 2963 2959
2997 2999 3001 3003 3004 3004 3003 3001 3003 3008 3008 3008 3009 3008 3008 3009 3012 3011 3011 3010 3010 3009 3006 3001 2998 2997 2995 2995 2995 2995 2993 2993 2991 2989 2986 2982 2978 2974 2971 2964 2960 2955 2950 2946
2994 2995 2997 2998 2997 2995 2996 3000 3000 3003 3004 3007 3007 3005 3005 3005 3007 3006 3007 3005 3005 3003 2999 2994 2994 2993 2991 2988 2989 2989 2988 2985 2984 2980 2976 2972 2967 2962 2958 2953 2948 2943 2938 2935
2988 2991 2991 2990 2992 2993 2994 2998 2999 2999 3002 3002 3000 3001 3002 3002 3003 3001 3000 2999 2996 2992 2989 2990 2988 2988 2986 2984 2984 2983 2980 2978 2973 2969 2965 2960 2955 2950 2945 2941 2936 2932 2927 2923
2984 2985 2985 2987 2988 2990 2994 2994 2994 2996 2995 2995 2997 2996 2996 2996 2995 2993 2990 2989 2986 2986 2986 2985 2984 2984 2981 2980 2978 2975 2970 2965 2960 2956 2952 2947 2942 2937 2931 2927 2924 2920 2915 2911
2975 2979 2981 2983 2986 2988 2988 2987 2989 2990 2989 2987 2991 2991 2990 2988 2986 2984 2982 2977 2979 2982 2983 2980 2978 2975 2972 2969 2965 2961 2956 2952 2948 2943 2939 2934 2929 2924 2920 2916 2913 2909 2904 2901